This is the latest recevied weather packets stored in our database for station/object N9XTN-3. If no packets are shown the sender has not sent any weather packets the latest 10 day(s).
| Time | Temp. | Humidity | Pressure | Rain* | Wind** | Luminosity | Snow |
|---|---|---|---|---|---|---|---|
| 1777969517 | 8.89° C | 80% | 1009.8 hPa | 0 mm | - | - | - |
| 1777968917 | 8.89° C | 84% | 1009.6 hPa | 0 mm | - | - | - |
| 1777968317 | 8.89° C | 84% | 1009.6 hPa | 0 mm | - | - | - |
| 1777968017 | 8.89° C | 84% | 1009.4 hPa | 0 mm | - | - | - |
| 1777967117 | 8.89° C | 85% | 1009.2 hPa | 0 mm | - | - | - |
| 1777966517 | 8.89° C | 84% | 1009.1 hPa | 0 mm | - | - | - |
| 1777964717 | 8.89° C | 85% | 1009.1 hPa | 0 mm | - | - | - |
| 1777964417 | 8.89° C | 85% | 1008.9 hPa | 0 mm | - | - | - |
| 1777960517 | 8.89° C | 82% | 1009.6 hPa | 0.51 mm | - | - | - |
| 1777959617 | 8.89° C | 81% | 1008.9 hPa | 0.25 mm | - | - | - |
| 1777955717 | 10.56° C | 68% | 1009.9 hPa | 0.25 mm | - | - | - |
| 1777953917 | 11.67° C | 54% | 1009.4 hPa | 0 mm | - | - | - |
| 1777951217 | 12.78° C | 46% | 1008.5 hPa | 0 mm | - | - | - |
| 1777950017 | 13.33° C | 44% | 1008.4 hPa | 0 mm | - | - | - |
| 1777949717 | 13.33° C | 45% | 1008.2 hPa | 0 mm | - | - | - |
| 1777947318 | 13.33° C | 42% | 1007.2 hPa | 0 mm | - | - | - |
| 1777946116 | 13.89° C | 42% | 1006.9 hPa | 0 mm | - | - | - |
| 1777939216 | 19.44° C | 33% | 1004.5 hPa | 0 mm | - | - | - |
| 1777937716 | 21.11° C | 31% | 1004.4 hPa | 0 mm | - | - | - |
| 1777932616 | 23.33° C | 27% | 1003.2 hPa | 0 mm | - | - | - |
| 1777929916 | 25° C | 26% | 1002.8 hPa | 0 mm | - | - | - |
| 1777928416 | 25° C | 25% | 1002.4 hPa | 0 mm | - | - | - |
| 1777928116 | 25.56° C | 26% | 1002.5 hPa | 0 mm | - | - | - |
| 1777927216 | 25.56° C | 26% | 1002.5 hPa | 0 mm | - | - | - |
| 1777923616 | 25.56° C | 30% | 1002.5 hPa | 0 mm | - | - | - |
* Rain latest hour (hover to see other rain measurements)
** Current wind speed in m/s (hover to see current wind gust speed)